Theta_e
323 323 323 324 324 325 320 319 320 322 322 321 322 330 331 332 331 336 338 339 339 337 336 338 336 333 331 329 325 323 328 335 335 335 332 331 331 332 331 332 330 331 332
323 323 323 323 324 323 324 319 319 320 320 320 324 336 336 339 339 338 339 338 336 335 337 338 338 334 333 325 325 325 335 335 334 334 332 329 330 331 331 332 331 331 332
322 322 322 322 323 323 323 323 320 320 320 319 320 324 327 329 337 341 339 335 336 338 338 338 339 335 332 331 326 332 336 335 333 331 331 329 328 330 330 330 331 330 329
321 321 321 321 323 324 325 325 319 319 319 319 319 324 333 341 341 341 334 337 339 340 338 337 336 332 329 334 336 334 336 334 333 330 328 329 328 327 329 330 330 329 329
320 320 321 321 321 322 323 322 317 318 319 319 322 325 333 343 341 341 339 339 340 339 339 335 331 329 334 337 333 336 333 332 331 329 329 329 328 329 328 329 330 328 329
319 320 321 321 322 322 323 326 318 318 320 322 323 327 341 344 344 344 337 339 340 340 337 337 335 336 338 334 333 334 332 331 330 328 328 328 329 327 328 329 329 329 328
320 321 322 323 324 330 335 338 322 325 326 326 332 336 343 340 344 336 339 340 341 340 338 338 337 335 333 332 334 332 331 330 329 329 329 329 328 327 326 327 328 328 325
325 326 324 323 328 336 342 341 342 338 337 340 342 344 342 344 345 344 344 344 344 343 337 338 336 336 335 334 331 330 330 330 330 329 328 329 328 327 326 326 327 327 325
332 331 326 334 340 344 345 344 343 343 343 343 343 343 345 346 345 345 344 343 342 339 337 337 336 335 333 329 329 329 330 330 328 328 328 327 327 327 327 323 323 324 325
330 329 336 342 344 346 346 346 346 345 344 344 344 344 345 343 341 341 340 339 338 337 336 334 332 330 330 330 327 330 330 329 328 329 330 328 328 328 325 324 324 325 326
335 337 342 344 345 345 346 346 345 345 344 344 344 343 343 341 340 339 338 335 332 333 334 332 331 329 330 330 330 330 329 328 329 330 330 330 329 328 327 328 328 327 326
336 340 343 344 344 345 344 344 344 343 343 343 342 341 340 339 338 337 335 334 333 332 330 329 329 329 331 331 331 331 331 329 327 330 329 330 330 330 329 328 330 331 329
337 339 343 343 343 343 343 342 341 341 341 341 340 339 339 338 337 335 332 331 331 329 328 329 329 329 330 331 330 329 327 327 328 330 330 329 330 330 329 328 330 330 329
337 339 341 342 342 341 340 340 339 338 337 337 337 337 337 336 335 333 331 330 329 329 329 329 329 330 331 332 331 328 330 329 330 331 331 330 331 331 329 329 330 330 329
337 338 340 340 340 339 338 337 335 334 334 332 332 333 333 333 332 331 330 330 329 328 329 330 330 331 332 329 329 331 329 326 328 329 331 330 330 328 326 330 328 330 330
337 338 339 339 338 337 336 335 332 329 329 330 331 332 331 332 332 331 331 329 329 330 330 331 330 330 330 328 328 327 326 328 327 329 330 327 325 325 326 326 326 331 328
337 338 340 338 337 336 335 331 329 330 331 331 332 332 331 331 331 330 329 328 330 330 330 330 329 330 327 326 328 328 328 328 327 326 327 326 326 326 327 327 327 327 327
336 337 339 338 337 335 332 329 330 331 331 331 332 332 330 330 329 327 328 330 329 327 326 330 330 331 324 327 328 328 328 328 328 327 327 327 327 327 327 327 327 327 326
336 339 340 339 336 334 329 330 330 331 331 331 332 330 329 328 329 327 329 330 325 324 328 330 330 329 326 328 328 327 328 327 328 328 327 327 326 326 325 326 326 326 325
338 339 338 338 336 333 329 330 331 331 331 332 331 329 328 326 327 328 329 329 324 324 330 330 327 325 327 328 328 327 327 328 327 326 326 326 326 326 325 325 325 325 325
338 339 337 336 335 332 330 331 331 331 333 331 330 330 329 329 329 329 329 329 329 329 330 329 328 325 328 329 328 328 328 328 327 326 325 325 325 324 324 325 324 324 323
338 339 336 335 335 331 329 331 332 333 330 329 330 330 331 330 329 329 329 330 330 330 330 330 330 325 328 328 328 327 327 326 325 324 323 323 322 323 323 323 323 323 323
338 338 335 335 333 330 329 331 332 332 331 329 330 330 330 330 330 330 331 331 330 331 331 331 330 326 328 328 327 326 327 326 324 323 323 323 323 323 323 323 323 322 322
337 335 334 332 330 328 330 332 333 331 331 330 330 332 331 331 331 331 331 333 332 332 331 331 331 327 328 327 327 326 325 325 324 323 323 323 323 322 322 321 322 322 321
336 333 330 328 328 328 330 331 331 331 331 331 331 331 332 331 331 332 332 332 331 331 331 331 330 328 328 330 327 326 325 323 323 322 323 323 322 322 322 324 322 324 322
337 335 332 327 326 328 330 330 331 331 332 331 330 330 331 330 330 331 329 328 327 328 329 330 329 328 329 328 327 326 325 324 323 323 325 325 323 323 324 325 325 326 324
Wind_Speed
34 32 30 28 27 27 33 31 30 29 29 26 24 21 22 21 20 20 23 23 23 24 23 21 22 26 26 28 28 24 18 14 14 10 14 17 17 16 17 17 17 16 15
36 35 33 30 30 32 31 32 31 31 25 23 22 19 17 16 16 16 19 21 23 19 19 20 21 23 23 28 29 22 16 14 13 9 11 15 10 11 12 14 15 14 17
37 36 35 36 37 34 33 28 25 25 25 22 21 21 18 19 16 15 19 19 17 17 19 21 19 22 21 22 21 20 15 10 12 15 11 9 9 3 6 10 14 15 18
37 38 38 37 33 30 25 23 25 26 27 27 22 19 16 13 14 15 15 12 17 19 20 18 19 20 20 17 18 16 11 12 10 10 14 14 12 9 6 6 9 14 14
36 32 28 27 26 26 24 26 30 29 28 26 22 21 17 13 12 12 13 19 18 17 18 18 19 20 19 18 16 13 12 12 10 11 8 12 11 12 12 9 7 9 10
28 24 22 20 19 17 18 20 25 26 25 24 23 22 17 15 14 16 16 19 19 19 18 18 20 20 18 17 14 12 12 11 11 10 11 11 9 9 11 8 5 6 6
17 18 17 13 11 11 11 13 16 18 20 19 17 16 16 15 15 14 18 19 19 19 20 21 19 18 16 14 12 12 11 11 10 10 10 10 9 9 10 9 4 4 10
14 15 15 13 11 10 9 8 9 11 12 14 15 15 16 14 14 15 18 17 18 18 21 19 17 14 12 12 14 9 10 11 10 12 10 10 8 9 10 7 7 6 9
14 11 9 9 8 8 10 12 14 15 16 17 17 17 17 18 19 21 20 19 19 19 18 16 15 13 13 11 11 10 11 11 12 10 10 9 6 8 9 8 9 10 10
7 6 10 10 12 13 15 16 16 18 19 19 19 19 21 21 22 21 20 20 20 19 17 15 14 12 11 11 10 10 12 11 9 8 9 8 6 9 12 9 9 10 10
2 5 9 14 15 16 17 18 19 20 20 19 21 22 22 22 21 21 20 19 18 17 14 12 11 11 10 10 11 10 10 11 9 8 9 10 9 10 11 11 9 8 11
4 5 11 16 17 17 18 19 20 20 20 21 21 22 22 21 21 19 18 16 13 13 12 12 11 10 9 9 9 10 9 11 11 11 10 10 11 12 13 14 11 9 9
4 5 12 16 17 17 19 20 21 22 21 21 21 21 20 19 18 16 15 13 13 12 13 12 10 7 7 8 9 11 12 12 12 13 12 11 11 13 12 11 10 11 9
4 5 12 15 17 18 20 22 23 22 21 20 19 18 17 16 15 14 14 13 13 14 12 9 7 7 6 5 5 7 7 9 8 11 12 11 12 13 12 11 10 10 11
2 5 9 13 18 21 22 22 21 20 19 18 16 16 15 14 15 15 14 13 13 12 10 8 5 4 3 2 2 4 6 8 8 9 10 10 11 12 11 10 10 14 18
3 7 11 16 20 22 22 21 20 19 18 18 17 16 14 14 14 14 14 14 14 12 11 7 4 2 2 1 2 3 5 7 8 9 10 14 11 13 12 12 11 18 15
8 12 15 18 21 22 22 21 20 20 19 17 15 13 13 13 14 13 14 15 12 12 11 7 5 3 1 1 1 2 3 7 10 11 11 11 12 12 13 14 14 16 18
10 15 18 21 23 22 22 20 20 19 17 15 13 11 12 13 13 14 16 13 11 12 9 6 4 2 3 1 2 4 4 5 8 10 10 10 11 12 14 16 15 15 13
13 19 21 24 24 23 22 22 20 18 15 13 11 11 12 13 14 16 15 11 12 9 8 5 3 3 3 3 4 7 6 6 7 9 11 12 13 12 14 15 18 20 20
15 21 23 25 25 23 23 22 20 17 14 12 12 12 13 14 15 16 13 10 11 9 7 4 1 2 3 4 5 7 8 8 10 11 10 10 9 10 13 15 19 22 22
17 22 24 25 25 24 23 22 19 15 13 12 13 14 13 13 13 12 12 10 10 10 8 5 3 3 3 4 4 6 6 8 10 9 10 13 12 13 15 17 18 21 21
16 23 24 25 24 23 23 22 18 15 15 14 15 14 14 12 10 9 10 11 11 10 9 7 5 3 3 4 3 5 8 7 10 15 16 16 13 13 14 16 20 20 20
18 23 25 25 23 22 23 22 18 17 18 16 15 13 11 10 8 7 9 10 11 10 9 8 7 5 5 6 5 9 9 11 17 19 18 16 16 16 13 17 20 20 21
22 23 24 24 24 23 23 22 18 18 18 16 13 12 10 9 6 5 6 7 8 8 8 7 8 7 7 7 8 12 11 16 21 23 18 19 19 19 23 28 22 18 21
23 23 23 24 24 24 24 21 19 19 17 15 13 9 9 8 6 7 7 4 5 8 7 8 7 6 8 10 9 14 16 21 24 25 20 21 22 26 25 19 20 19 22
19 22 22 22 24 25 23 20 19 19 18 16 13 10 8 7 6 7 8 6 6 9 10 13 10 8 7 10 10 13 14 19 25 21 18 19 20 18 15 12 16 17 18
Wind_Direction
265 267 267 264 262 262 270 270 268 265 267 265 267 249 242 246 247 237 229 223 225 223 220 210 216 214 211 215 228 230 231 233 240 252 272 280 276 268 250 249 240 232 227
264 263 264 264 263 266 265 272 266 264 267 270 254 233 241 237 241 233 226 220 227 215 209 203 211 212 207 218 222 216 211 227 235 251 269 278 253 257 250 242 238 229 220
264 266 266 265 265 263 263 265 262 258 258 264 264 253 241 236 225 213 219 218 210 205 201 204 201 205 196 205 209 209 209 225 247 248 243 270 261 245 252 246 234 223 216
263 266 266 267 264 261 256 254 256 258 262 267 257 246 233 218 215 204 225 204 193 202 206 205 193 196 188 191 196 202 214 230 245 262 242 240 255 269 250 255 229 225 214
259 264 265 268 264 255 249 253 259 261 258 260 247 242 218 207 210 184 189 192 189 192 196 183 185 184 175 187 193 201 220 239 233 237 234 239 244 250 248 262 228 203 198
258 260 273 259 257 248 239 241 244 249 250 248 240 224 206 186 176 175 186 176 177 174 173 170 167 174 178 187 202 212 226 229 219 220 228 235 233 243 235 242 194 193 194
262 255 258 251 246 229 230 234 239 238 237 226 212 194 188 182 173 188 169 160 163 161 165 165 169 174 184 196 199 221 217 209 208 216 225 235 240 240 243 227 187 188 209
284 262 252 245 229 231 220 197 187 180 169 159 158 161 164 157 158 147 154 153 156 159 162 166 169 173 182 205 228 214 198 205 209 218 218 230 211 226 236 206 196 169 182
298 264 213 188 185 172 149 147 142 138 136 136 139 140 140 139 144 141 138 144 148 154 155 163 169 185 207 213 198 191 196 207 216 226 224 231 204 204 221 204 199 186 168
304 171 166 155 141 139 134 131 131 130 126 127 129 128 129 130 133 133 138 140 144 151 158 169 186 191 183 184 190 204 207 213 220 221 221 224 200 188 206 181 178 176 181
52 150 154 135 140 134 132 128 125 121 121 125 127 127 128 130 132 135 138 145 153 161 164 167 167 172 177 186 200 207 215 223 223 214 217 214 194 184 197 198 211 193 183
1 138 136 141 138 135 130 125 123 123 125 126 126 127 130 133 134 136 143 149 152 150 154 155 158 165 180 197 215 224 226 230 234 207 208 205 192 189 194 197 200 195 185
36 126 142 143 140 137 132 129 129 128 128 129 130 131 132 135 138 143 148 148 147 147 148 150 155 175 205 221 238 241 244 238 227 198 203 202 197 195 197 200 191 187 184
56 139 144 144 142 137 134 133 131 128 129 130 131 132 136 141 144 145 146 145 145 145 152 156 169 191 211 234 246 234 221 216 207 191 201 199 197 192 193 192 192 187 173
85 154 139 140 140 139 137 134 129 130 131 132 135 137 140 144 145 147 146 147 150 151 155 156 173 180 162 208 240 198 186 210 195 194 193 195 192 192 190 192 195 186 184
163 177 151 149 145 144 141 137 134 132 133 131 130 132 139 145 150 152 153 150 151 152 153 144 134 118 112 199 213 186 180 180 199 195 179 197 194 196 196 205 195 194 177
184 187 166 161 155 149 146 141 138 135 132 136 132 134 140 148 151 153 157 156 158 158 151 130 121 104 52 329 66 166 181 204 203 202 204 194 199 204 211 201 186 184 175
206 191 174 165 158 152 147 145 142 140 138 139 139 143 147 151 150 149 154 159 160 158 154 126 113 63 23 50 94 139 155 157 165 172 179 181 194 196 186 179 172 164 166
222 189 170 164 157 156 153 148 146 145 146 150 146 143 149 152 153 154 160 159 158 157 153 127 90 42 51 88 93 130 153 163 158 164 171 175 171 169 158 157 166 163 156
188 176 165 161 158 158 155 153 150 151 152 149 146 148 148 144 146 157 164 168 166 166 158 134 85 38 82 96 97 127 161 163 153 152 157 164 180 172 159 172 166 155 159
172 162 161 162 161 161 158 157 156 156 151 145 150 148 149 151 156 163 172 167 169 175 163 159 134 107 113 106 104 131 156 164 163 171 163 152 154 158 163 170 170 165 157
164 158 158 159 162 162 162 160 159 150 140 144 146 144 144 146 160 172 169 178 183 176 172 169 135 136 134 119 96 127 161 163 157 139 134 132 137 153 154 159 152 152 152
166 158 157 156 161 162 162 161 158 150 144 139 138 140 144 146 159 175 176 174 182 182 183 178 155 153 147 131 115 128 136 140 144 132 124 125 139 133 132 144 144 144 150
160 158 155 155 158 161 161 163 159 155 153 147 136 141 138 143 153 162 163 170 173 176 176 165 148 153 158 147 136 136 133 141 139 130 129 126 129 129 127 126 120 131 146
158 154 150 155 156 159 161 162 162 160 158 157 150 139 144 129 153 142 146 121 150 168 169 154 146 159 166 157 154 152 146 148 144 140 128 135 135 134 127 124 137 140 140
153 156 150 146 155 159 160 161 165 164 161 160 153 148 139 130 141 140 128 127 129 148 160 150 150 167 166 157 151 156 152 153 149 141 143 146 148 148 155 145 147 153 158